Location: Austin
(30.3000°N, 97.7500°W)
Time: 00:56:14
(UTC-05:00)

Cosmos 2112 Rocket - Pass Details

Date: 15 May 2024
Orbit: 755 x 785 km, 74.0° (Epoch: 29 May)

Event Time Altitude Azimuth Distance (km) Brightness Sun altitude
Exits shadow 23:10:08 59° 305° (NW) 903 4.5 -30.5°
Drops below altitude 10° 23:15:04 10° 8° (N) 2,336 7.0 -31.1°
Sets 23:17:30 0° 12° (NNE) 3,264 7.8 -31.5°
